Time,TemperatureF,DewpointF,PressureIn,WindDirection,WindDirectionDegrees,WindSpeedMPH,WindSpeedGustMPH,Humidity,HourlyPrecipIn,Conditions,Clouds,dailyrainin,SoftwareType,DateUTC
2013-03-04 00:01:00,35.0,30.0,-100.00,WNW,283,18.0,20.0,83,-99.99,,,-99.99,,2013-03-04 07:01:00,
2013-03-04 00:11:00,34.0,30.0,-100.00,WNW,286,17.0,20.0,83,-99.99,,,-99.99,,2013-03-04 07:11:00,
2013-03-04 00:21:00,34.0,30.0,-100.00,WNW,286,17.0,20.0,83,-99.99,,,-99.99,,2013-03-04 07:21:00,
2013-03-04 00:32:00,34.0,30.0,-100.00,WNW,286,17.0,20.0,83,-99.99,,,-99.99,,2013-03-04 07:32:00,
2013-03-04 00:41:00,33.0,30.0,-100.00,WNW,284,16.0,22.0,87,-99.99,,,-99.99,,2013-03-04 07:41:00,
2013-03-04 00:51:00,33.0,30.0,-100.00,WNW,284,16.0,22.0,87,-99.99,,,-99.99,,2013-03-04 07:51:00,
2013-03-04 01:01:00,33.0,29.0,-100.00,WNW,285,16.0,20.0,84,-99.99,,,-99.99,,2013-03-04 08:01:00,
2013-03-04 01:11:00,33.0,29.0,-100.00,WNW,293,16.0,20.0,83,-99.99,,,-99.99,,2013-03-04 08:11:00,
2013-03-04 01:21:00,33.0,29.0,-100.00,WNW,293,16.0,20.0,83,-99.99,,,-99.99,,2013-03-04 08:21:00,
2013-03-04 01:31:00,33.0,29.0,-100.00,WNW,293,16.0,20.0,83,-99.99,,,-99.99,,2013-03-04 08:31:00,
2013-03-04 01:41:00,33.0,28.0,-100.00,WNW,286,14.0,15.0,79,-99.99,,,-99.99,,2013-03-04 08:41:00,
2013-03-04 01:52:00,33.0,28.0,-100.00,WNW,286,14.0,15.0,79,-99.99,,,-99.99,,2013-03-04 08:52:00,
2013-03-04 02:01:00,33.0,28.0,-100.00,WNW,286,14.0,15.0,79,-99.99,,,-99.99,,2013-03-04 09:01:00,
2013-03-04 02:11:00,33.0,27.0,-100.00,West,280,13.0,20.0,77,-99.99,,,-99.99,,2013-03-04 09:11:00,
2013-03-04 02:21:00,33.0,27.0,-100.00,WNW,284,14.0,19.0,78,-99.99,,,-99.99,,2013-03-04 09:21:00,
2013-03-04 02:31:00,32.0,26.0,-100.00,WNW,286,14.0,16.0,77,-99.99,,,-99.99,,2013-03-04 09:31:00,
2013-03-04 02:41:00,32.0,26.0,-100.00,WNW,284,14.0,20.0,76,-99.99,,,-99.99,,2013-03-04 09:41:00,
2013-03-04 02:51:00,32.0,26.0,-100.00,WNW,284,14.0,20.0,76,-99.99,,,-99.99,,2013-03-04 09:51:00,
2013-03-04 03:01:00,32.0,25.0,-100.00,West,279,19.0,24.0,75,-99.99,,,-99.99,,2013-03-04 10:01:00,
2013-03-04 03:11:00,32.0,25.0,-100.00,West,279,19.0,24.0,75,-99.99,,,-99.99,,2013-03-04 10:11:00,
2013-03-04 03:21:00,32.0,24.0,-100.00,West,277,22.0,24.0,73,-99.99,,,-99.99,,2013-03-04 10:21:00,
2013-03-04 03:31:00,31.0,23.0,-100.00,WNW,283,14.0,20.0,70,-99.99,,,-99.99,,2013-03-04 10:31:00,
2013-03-04 03:41:00,30.0,22.0,-100.00,West,275,12.0,19.0,70,-99.99,,,-99.99,,2013-03-04 10:41:00,
2013-03-04 03:52:00,30.0,22.0,-100.00,West,275,12.0,19.0,70,-99.99,,,-99.99,,2013-03-04 10:52:00,
2013-03-04 04:01:00,30.0,22.0,-100.00,West,280,11.0,13.0,70,-99.99,,,-99.99,,2013-03-04 11:01:00,
2013-03-04 04:11:00,30.0,20.0,-100.00,West,281,13.0,14.0,67,-99.99,,,-99.99,,2013-03-04 11:11:00,
2013-03-04 04:21:00,30.0,20.0,-100.00,West,281,13.0,14.0,67,-99.99,,,-99.99,,2013-03-04 11:21:00,
2013-03-04 04:31:00,30.0,19.0,-100.00,WNW,290,15.0,19.0,64,-99.99,,,-99.99,,2013-03-04 11:31:00,
2013-03-04 04:41:00,29.0,19.0,-100.00,WNW,292,12.0,14.0,65,-99.99,,,-99.99,,2013-03-04 11:41:00,
2013-03-04 04:52:00,29.0,19.0,-100.00,WNW,292,12.0,14.0,65,-99.99,,,-99.99,,2013-03-04 11:52:00,
2013-03-04 05:01:00,29.0,19.0,-100.00,WNW,292,12.0,14.0,65,-99.99,,,-99.99,,2013-03-04 12:01:00,
2013-03-04 05:11:00,29.0,19.0,-100.00,West,280,12.0,18.0,65,-99.99,,,-99.99,,2013-03-04 12:11:00,
2013-03-04 05:21:00,29.0,18.0,-100.00,WNW,286,10.0,14.0,63,-99.99,,,-99.99,,2013-03-04 12:21:00,
2013-03-04 05:32:00,29.0,18.0,-100.00,WNW,286,10.0,14.0,63,-99.99,,,-99.99,,2013-03-04 12:32:00,
2013-03-04 05:42:00,29.0,16.0,-100.00,WNW,294,17.0,21.0,59,-99.99,,,-99.99,,2013-03-04 12:42:00,
2013-03-04 05:52:00,29.0,16.0,-100.00,WNW,294,17.0,21.0,59,-99.99,,,-99.99,,2013-03-04 12:52:00,
2013-03-04 06:02:00,29.0,16.0,-100.00,WNW,294,17.0,21.0,59,-99.99,,,-99.99,,2013-03-04 13:02:00,
2013-03-04 06:11:00,27.0,16.0,-100.00,WNW,302,17.0,19.0,61,-99.99,,,-99.99,,2013-03-04 13:11:00,
2013-03-04 06:21:00,27.0,16.0,-100.00,WNW,302,17.0,19.0,61,-99.99,,,-99.99,,2013-03-04 13:21:00,
2013-03-04 06:31:00,27.0,15.0,-100.00,WNW,294,14.0,18.0,61,-99.99,,,-99.99,,2013-03-04 13:31:00,
2013-03-04 06:41:00,27.0,15.0,-100.00,WNW,294,14.0,18.0,61,-99.99,,,-99.99,,2013-03-04 13:41:00,
2013-03-04 06:51:00,27.0,16.0,-100.00,WNW,296,17.0,21.0,62,-99.99,,,-99.99,,2013-03-04 13:51:00,
2013-03-04 07:01:00,27.0,16.0,-100.00,WNW,296,17.0,21.0,62,-99.99,,,-99.99,,2013-03-04 14:01:00,
2013-03-04 07:11:00,25.0,14.0,-100.00,WNW,295,15.0,23.0,61,-99.99,,,-99.99,,2013-03-04 14:11:00,
2013-03-04 07:22:00,25.0,14.0,-100.00,WNW,295,15.0,23.0,61,-99.99,,,-99.99,,2013-03-04 14:22:00,
2013-03-04 07:32:00,25.0,12.0,-100.00,WNW,302,17.0,21.0,58,-99.99,,,-99.99,,2013-03-04 14:32:00,
2013-03-04 07:41:00,25.0,12.0,-100.00,WNW,302,17.0,21.0,58,-99.99,,,-99.99,,2013-03-04 14:41:00,
2013-03-04 07:52:00,24.0,11.0,-100.00,WNW,286,16.0,20.0,56,-99.99,,,-99.99,,2013-03-04 14:52:00,
2013-03-04 08:01:00,24.0,12.0,-100.00,NW,307,14.0,21.0,58,-99.99,,,-99.99,,2013-03-04 15:01:00,
2013-03-04 08:11:00,24.0,10.0,-100.00,NW,318,14.0,15.0,55,-99.99,,,-99.99,,2013-03-04 15:11:00,
2013-03-04 08:21:00,24.0,10.0,-100.00,NW,318,14.0,15.0,55,-99.99,,,-99.99,,2013-03-04 15:21:00,
2013-03-04 08:31:00,24.0,10.0,-100.00,NW,318,14.0,15.0,55,-99.99,,,-99.99,,2013-03-04 15:31:00,
2013-03-04 08:41:00,25.0,8.0,-100.00,NW,310,18.0,20.0,48,-99.99,,,-99.99,,2013-03-04 15:41:00,
2013-03-04 08:51:00,25.0,8.0,-100.00,NW,310,18.0,20.0,48,-99.99,,,-99.99,,2013-03-04 15:51:00,
2013-03-04 09:02:00,25.0,10.0,-100.00,WNW,303,11.0,15.0,54,-99.99,,,-99.99,,2013-03-04 16:02:00,
2013-03-04 09:11:00,25.0,10.0,-100.00,WNW,303,11.0,15.0,54,-99.99,,,-99.99,,2013-03-04 16:11:00,
2013-03-04 09:21:00,24.0,9.0,-100.00,NW,319,17.0,20.0,51,-99.99,,,-99.99,,2013-03-04 16:21:00,
2013-03-04 09:31:00,24.0,9.0,-100.00,WNW,291,17.0,23.0,50,-99.99,,,-99.99,,2013-03-04 16:31:00,
2013-03-04 09:41:00,24.0,9.0,-100.00,WNW,292,19.0,21.0,51,-99.99,,,-99.99,,2013-03-04 16:41:00,
2013-03-04 09:52:00,24.0,9.0,-100.00,WNW,292,19.0,21.0,51,-99.99,,,-99.99,,2013-03-04 16:52:00,
2013-03-04 10:02:00,24.0,9.0,-100.00,WNW,292,19.0,21.0,51,-99.99,,,-99.99,,2013-03-04 17:02:00,
2013-03-04 10:11:00,25.0,7.0,-100.00,West,273,19.0,21.0,47,-99.99,,,-99.99,,2013-03-04 17:11:00,
2013-03-04 10:21:00,25.0,7.0,-100.00,West,273,19.0,21.0,47,-99.99,,,-99.99,,2013-03-04 17:21:00,
2013-03-04 10:31:00,25.0,7.0,-100.00,West,273,19.0,21.0,47,-99.99,,,-99.99,,2013-03-04 17:31:00,
2013-03-04 10:42:00,24.0,7.0,-100.00,NW,322,10.0,19.0,46,-99.99,,,-99.99,,2013-03-04 17:42:00,
2013-03-04 10:52:00,24.0,7.0,-100.00,NW,322,10.0,19.0,46,-99.99,,,-99.99,,2013-03-04 17:52:00,
2013-03-04 11:01:00,24.0,7.0,-100.00,NW,322,10.0,19.0,46,-99.99,,,-99.99,,2013-03-04 18:01:00,
2013-03-04 11:11:00,24.0,5.0,-100.00,NW,312,7.0,15.0,42,-99.99,,,-99.99,,2013-03-04 18:11:00,
2013-03-04 11:21:00,25.0,4.0,-100.00,North,358,7.0,11.0,40,-99.99,,,-99.99,,2013-03-04 18:21:00,
2013-03-04 11:32:00,25.0,4.0,-100.00,North,358,7.0,11.0,40,-99.99,,,-99.99,,2013-03-04 18:32:00,
2013-03-04 11:42:00,25.0,2.0,-100.00,North,355,7.0,13.0,36,-99.99,,,-99.99,,2013-03-04 18:42:00,
2013-03-04 11:51:00,25.0,2.0,-100.00,North,355,7.0,13.0,36,-99.99,,,-99.99,,2013-03-04 18:51:00,
2013-03-04 12:01:00,26.0,1.0,-100.00,WNW,297,8.0,12.0,34,-99.99,,,-99.99,,2013-03-04 19:01:00,
2013-03-04 12:11:00,27.0,3.0,-100.00,NW,317,6.0,9.0,34,-99.99,,,-99.99,,2013-03-04 19:11:00,
2013-03-04 12:21:00,27.0,3.0,-100.00,NW,317,6.0,9.0,34,-99.99,,,-99.99,,2013-03-04 19:21:00,
2013-03-04 12:32:00,27.0,4.0,-100.00,West,266,4.0,14.0,35,-99.99,,,-99.99,,2013-03-04 19:32:00,
2013-03-04 12:41:00,27.0,4.0,-100.00,West,266,4.0,14.0,35,-99.99,,,-99.99,,2013-03-04 19:41:00,
2013-03-04 12:51:00,27.0,3.0,-100.00,WNW,284,6.0,16.0,35,-99.99,,,-99.99,,2013-03-04 19:51:00,
2013-03-04 13:01:00,27.0,3.0,-100.00,WNW,284,6.0,16.0,35,-99.99,,,-99.99,,2013-03-04 20:01:00,
2013-03-04 13:11:00,28.0,8.0,-100.00,West,263,9.0,15.0,42,-99.99,,,-99.99,,2013-03-04 20:11:00,
2013-03-04 13:21:00,29.0,3.0,-100.00,WSW,247,6.0,15.0,32,-99.99,,,-99.99,,2013-03-04 20:21:00,
2013-03-04 13:32:00,27.0,6.0,-100.00,WNW,294,10.0,12.0,40,-99.99,,,-99.99,,2013-03-04 20:32:00,
2013-03-04 13:41:00,27.0,6.0,-100.00,WNW,294,10.0,12.0,40,-99.99,,,-99.99,,2013-03-04 20:41:00,
2013-03-04 13:52:00,29.0,3.0,-100.00,West,269,6.0,12.0,32,-99.99,,,-99.99,,2013-03-04 20:52:00,
2013-03-04 14:01:00,29.0,3.0,-100.00,West,269,6.0,12.0,32,-99.99,,,-99.99,,2013-03-04 21:01:00,
2013-03-04 14:11:00,29.0,2.0,-100.00,WNW,291,3.0,10.0,31,-99.99,,,-99.99,,2013-03-04 21:11:00,
2013-03-04 14:21:00,28.0,3.0,-100.00,NW,322,7.0,10.0,32,-99.99,,,-99.99,,2013-03-04 21:21:00,
2013-03-04 14:32:00,28.0,3.0,-100.00,NW,322,7.0,10.0,32,-99.99,,,-99.99,,2013-03-04 21:32:00,
2013-03-04 14:42:00,28.0,3.0,-100.00,NW,316,8.0,14.0,32,-99.99,,,-99.99,,2013-03-04 21:42:00,
2013-03-04 14:52:00,28.0,1.0,-100.00,SSW,196,5.0,12.0,30,-99.99,,,-99.99,,2013-03-04 21:52:00,
2013-03-04 15:01:00,30.0,1.0,-100.00,South,184,7.0,9.0,27,-99.99,,,-99.99,,2013-03-04 22:01:00,
2013-03-04 15:11:00,30.0,1.0,-100.00,South,184,7.0,9.0,27,-99.99,,,-99.99,,2013-03-04 22:11:00,
2013-03-04 15:21:00,29.0,7.0,-100.00,WNW,303,9.0,11.0,37,-99.99,,,-99.99,,2013-03-04 22:21:00,
2013-03-04 15:32:00,29.0,7.0,-100.00,WNW,303,9.0,11.0,37,-99.99,,,-99.99,,2013-03-04 22:32:00,
2013-03-04 15:42:00,30.0,4.0,-100.00,WNW,284,5.0,9.0,32,-99.99,,,-99.99,,2013-03-04 22:42:00,
2013-03-04 15:51:00,30.0,11.0,-100.00,NW,306,6.0,12.0,46,-99.99,,,-99.99,,2013-03-04 22:51:00,
2013-03-04 16:01:00,30.0,11.0,-100.00,NW,306,6.0,12.0,46,-99.99,,,-99.99,,2013-03-04 23:01:00,
2013-03-04 16:11:00,29.0,9.0,-100.00,WNW,293,11.0,13.0,42,-99.99,,,-99.99,,2013-03-04 23:11:00,
2013-03-04 16:21:00,29.0,9.0,-100.00,WNW,293,11.0,13.0,42,-99.99,,,-99.99,,2013-03-04 23:21:00,
2013-03-04 16:32:00,29.0,10.0,-100.00,WNW,290,12.0,14.0,43,-99.99,,,-99.99,,2013-03-04 23:32:00,
2013-03-04 16:41:00,29.0,10.0,-100.00,WNW,292,15.0,15.0,45,-99.99,,,-99.99,,2013-03-04 23:41:00,
2013-03-04 16:52:00,29.0,10.0,-100.00,WNW,292,15.0,15.0,45,-99.99,,,-99.99,,2013-03-04 23:52:00,
2013-03-04 17:01:00,29.0,10.0,-100.00,WNW,292,15.0,15.0,45,-99.99,,,-99.99,,2013-03-05 00:01:00,
2013-03-04 17:11:00,29.0,10.0,-100.00,WNW,292,15.0,15.0,45,-99.99,,,-99.99,,2013-03-05 00:11:00,
2013-03-04 17:21:00,28.0,10.0,-100.00,WNW,297,13.0,13.0,45,-99.99,,,-99.99,,2013-03-05 00:21:00,
2013-03-04 17:32:00,28.0,12.0,-100.00,WNW,296,10.0,14.0,50,-99.99,,,-99.99,,2013-03-05 00:32:00,
2013-03-04 17:41:00,28.0,12.0,-100.00,WNW,296,10.0,14.0,50,-99.99,,,-99.99,,2013-03-05 00:41:00,
2013-03-04 17:51:00,28.0,11.0,-100.00,WNW,295,11.0,13.0,48,-99.99,,,-99.99,,2013-03-05 00:51:00,
2013-03-04 18:01:00,27.0,12.0,-100.00,WNW,297,12.0,13.0,53,-99.99,,,-99.99,,2013-03-05 01:01:00,
2013-03-04 18:11:00,26.0,12.0,-100.00,WNW,296,9.0,16.0,54,-99.99,,,-99.99,,2013-03-05 01:11:00,
2013-03-04 18:21:00,26.0,12.0,-100.00,WNW,296,9.0,16.0,54,-99.99,,,-99.99,,2013-03-05 01:21:00,
2013-03-04 18:32:00,26.0,12.0,-100.00,WNW,296,9.0,16.0,54,-99.99,,,-99.99,,2013-03-05 01:32:00,
2013-03-04 18:41:00,24.0,12.0,-100.00,WNW,301,11.0,14.0,59,-99.99,,,-99.99,,2013-03-05 01:41:00,
2013-03-04 18:51:00,24.0,12.0,-100.00,WNW,301,11.0,14.0,59,-99.99,,,-99.99,,2013-03-05 01:51:00,
2013-03-04 19:01:00,23.0,12.0,-100.00,WNW,294,16.0,16.0,60,-99.99,,,-99.99,,2013-03-05 02:01:00,
2013-03-04 19:11:00,23.0,12.0,-100.00,WNW,294,16.0,16.0,60,-99.99,,,-99.99,,2013-03-05 02:11:00,
2013-03-04 19:21:00,23.0,12.0,-100.00,WNW,293,9.0,15.0,61,-99.99,,,-99.99,,2013-03-05 02:21:00,
2013-03-04 19:32:00,23.0,12.0,-100.00,SW,229,2.0,3.0,61,-99.99,,,-99.99,,2013-03-05 02:32:00,
2013-03-04 19:41:00,23.0,12.0,-100.00,SW,226,3.0,5.0,60,-99.99,,,-99.99,,2013-03-05 02:41:00,
2013-03-04 19:52:00,23.0,12.0,-100.00,SW,226,3.0,5.0,60,-99.99,,,-99.99,,2013-03-05 02:52:00,
2013-03-04 20:01:00,22.0,11.0,-100.00,WSW,237,2.0,5.0,61,-99.99,,,-99.99,,2013-03-05 03:01:00,
2013-03-04 20:11:00,22.0,11.0,-100.00,WSW,237,2.0,5.0,61,-99.99,,,-99.99,,2013-03-05 03:11:00,
2013-03-04 20:21:00,23.0,11.0,-100.00,NW,305,4.0,6.0,61,-99.99,,,-99.99,,2013-03-05 03:21:00,
2013-03-04 20:31:00,22.0,12.0,-100.00,SSW,201,3.0,5.0,65,-99.99,,,-99.99,,2013-03-05 03:31:00,
2013-03-04 20:41:00,21.0,12.0,-100.00,SW,225,4.0,5.0,66,-99.99,,,-99.99,,2013-03-05 03:41:00,
2013-03-04 20:51:00,21.0,12.0,-100.00,SW,225,4.0,5.0,66,-99.99,,,-99.99,,2013-03-05 03:51:00,
2013-03-04 21:01:00,21.0,12.0,-100.00,SW,225,4.0,5.0,66,-99.99,,,-99.99,,2013-03-05 04:01:00,
2013-03-04 21:11:00,20.0,11.0,-100.00,SW,225,4.0,6.0,65,-99.99,,,-99.99,,2013-03-05 04:11:00,
2013-03-04 21:21:00,20.0,11.0,-100.00,SW,225,4.0,6.0,65,-99.99,,,-99.99,,2013-03-05 04:21:00,
2013-03-04 21:31:00,17.0,10.0,-100.00,WNW,300,3.0,4.0,72,-99.99,,,-99.99,,2013-03-05 04:31:00,
2013-03-04 21:41:00,17.0,10.0,-100.00,WNW,300,3.0,4.0,72,-99.99,,,-99.99,,2013-03-05 04:41:00,
2013-03-04 21:51:00,17.0,10.0,-100.00,WNW,289,2.0,3.0,72,-99.99,,,-99.99,,2013-03-05 04:51:00,
2013-03-04 22:01:00,17.0,10.0,-100.00,WNW,289,2.0,3.0,72,-99.99,,,-99.99,,2013-03-05 05:01:00,
2013-03-04 22:11:00,16.0,9.0,-100.00,NNW,343,3.0,4.0,73,-99.99,,,-99.99,,2013-03-05 05:11:00,
2013-03-04 22:22:00,16.0,9.0,-100.00,NNW,343,3.0,4.0,73,-99.99,,,-99.99,,2013-03-05 05:22:00,
2013-03-04 22:31:00,15.0,9.0,-100.00,North,0,0.0,3.0,75,-99.99,,,-99.99,,2013-03-05 05:31:00,
2013-03-04 22:41:00,15.0,9.0,-100.00,North,0,0.0,3.0,75,-99.99,,,-99.99,,2013-03-05 05:41:00,
2013-03-04 22:51:00,16.0,10.0,-100.00,North,0,0.0,0.0,76,-99.99,,,-99.99,,2013-03-05 05:51:00,
2013-03-04 23:01:00,14.0,9.0,-100.00,North,0,0.0,1.0,77,-99.99,,,-99.99,,2013-03-05 06:01:00,
2013-03-04 23:11:00,14.0,9.0,-100.00,NNW,347,2.0,2.0,78,-99.99,,,-99.99,,2013-03-05 06:11:00,
2013-03-04 23:21:00,14.0,9.0,-100.00,NNW,347,2.0,2.0,78,-99.99,,,-99.99,,2013-03-05 06:21:00,
2013-03-04 23:31:00,14.0,9.0,-100.00,NNW,329,0.0,2.0,78,-99.99,,,-99.99,,2013-03-05 06:31:00,
2013-03-04 23:41:00,14.0,9.0,-100.00,North,0,0.0,2.0,79,-99.99,,,-99.99,,2013-03-05 06:41:00,
2013-03-04 23:52:00,14.0,9.0,-100.00,North,0,0.0,2.0,79,-99.99,,,-99.99,,2013-03-05 06:52:00,